Regional Weather Roundup
Issued by NWS

Home | Current Version | Previous Version | Text Only | Print | Product List | Glossary Off
Versions: 1 2 3 4 5 6 7 8 9 10 11 12 13 14 15 16 17 18 19 20 21 22 23 24 25 26 27 28 29 30 31 32 33 34 35 36 37 38 39 40 41 42 43 44 45 46 47 48 49 50

000
ASUS43 KLSX 151359
RWRMO

WEATHER SUMMARY FOR MISSOURI
NATIONAL WEATHER SERVICE SPRINGFIELD MO
900 AM CDT MON SEP 15 2014

NOTE: "FAIR" INDICATES FEW OR NO CLOUDS BELOW 12,000 FEET WITH NO
       SIGNIFICANT WEATHER AND/OR OBSTRUCTIONS TO VISIBILITY.
       CURRENT SKY AND/OR WEATHER CONDITIONS ARE NOT AVAILABLE FOR
       CHILLICOTHE AND FARMINGTON.

MOZ001>031-035>038-043-044-053-054-151500-
...NORTHERN AND WESTERN MISSOURI...

CITY           SKY/WX    TMP DP  RH WIND       PRES   REMARKS
KANSAS CTY INT PTSUNNY   66  63  90 SW9       30.05F
KANSAS C DTWN  CLOUDY    69  63  81 SW8       30.05S
LEE`S SUMMIT   CLOUDY    66  62  87 SW13      30.07R
ST JOSEPH      CLOUDY    64  62  93 E3        30.04F
KIRKSVILLE     CLOUDY    59  57  93 W3        30.07R

$$
MOZ066>068-077>081-088>096-101>105-151500-
...SOUTHWEST MISSOURI...

CITY           SKY/WX    TMP DP  RH WIND       PRES   REMARKS
SPRINGFIELD    CLOUDY    66  62  87 S13       30.13S
JOPLIN         PTSUNNY   69  64  84 S13       30.13S

$$
MOZ032>034-039>042-045>050-055>058-069>072-151500-
...CENTRAL MISSOURI...

CITY           SKY/WX    TMP DP  RH WIND       PRES   REMARKS
COLUMBIA       CLOUDY    64  57  78 S10       30.09R
JEFFERSON CITY MOSUNNY   66  57  72 S6        30.10S
ROLLA          CLOUDY    62  58  86 S14       30.11F
SEDALIA        MOSUNNY   70  61  73 SW14G23   30.08S
OSAGE BEACH    PTSUNNY   63  55  77 S8        30.10F

$$
MOZ051-052-059>065-151500-
...EAST CENTRAL MISSOURI...

CITY           SKY/WX    TMP DP  RH WIND       PRES   REMARKS
ST LOUIS INTL  PTSUNNY   64  53  67 S8        30.12F
SPIRIT OF STL  PTSUNNY   62  54  74 S8        30.11F
ST CHARLES     CLOUDY    63  54  72 S5        30.12F

$$
MOZ072>076-082>087-097>100-106>115-151500-
...SOUTH CENTRAL AND SOUTHEAST MISSOURI...

CITY           SKY/WX    TMP DP  RH WIND       PRES   REMARKS
CAPE GIRARDEAU CLOUDY    62  56  80 CALM      30.20R
FARMINGTON     CLOUDY    59  54  82 S5        30.20F
POPLAR BLUFF   LGT RAIN  61  55  81 S5        30.19R
WEST PLAINS    CLOUDY    61  57  87 S7        30.19F

$$


USA.gov is the U.S. government's official web portal to all federal, state and local government web resources and services.